Regional Weather Roundup
Issued by NWS

Home | Current Version | Previous Version | Graphics & Text | Print | Product List | Glossary On
Versions: 1 2 3 4 5 6 7 8 9 10 11 12 13 14 15 16 17 18 19 20 21 22 23 24 25 26 27 28 29 30 31 32 33 34 35 36 37 38 39 40 41 42 43 44 45 46 47 48 49 50
000
ASUS45 KCYS 281710
RWRWY

WYOMING REGIONAL WEATHER ROUNDUP
NATIONAL WEATHER SERVICE CHEYENNE WY
1100 AM MDT THU AUG 28 2014

NOTE:  "FAIR" INDICATES FEW OR NO CLOUDS BELOW 12,000 FEET
WITH NO SIGNIFICANT WEATHER AND/OR OBSTRUCTIONS TO VISIBILITY.

WYZ001-281800-
YELLOWSTONE NATIONAL PARK

CITY           SKY/WX    TMP DP  RH WIND       PRES   REMARKS
LK YELLOWSTONE   N/A     57  44  62 E5        30.39F
W YELLOWSTONE  NOT AVBL

$$
WYZ002>013-054>058-071-098>099-281800-
NORTHERN WYOMING

CITY           SKY/WX    TMP DP  RH WIND       PRES   REMARKS
JACKSON        SUNNY     61  45  55 CALM      30.32F
CODY           SUNNY     77  45  31 SW3       30.14S
GREYBULL       SUNNY     71  53  52 S6        30.10F
WORLAND        SUNNY     71  53  52 VRB3      30.11F
SHERIDAN       SUNNY     82  43  25 N15       30.06S
BUFFALO        SUNNY     76  44  32 N16       30.12S
GILLETTE       SUNNY     78  51  38 N12       30.07S
HULETT         FAIR      72  54  53 MISG      30.07
NEWCASTLE      FAIR      72  50  46 NW6       30.07

$$
WYZ014>020-022>026-101>103-281800-
CENTRAL WYOMING

CITY           SKY/WX    TMP DP  RH WIND       PRES   REMARKS
BIG PINEY      SUNNY     65  47  52 S5        30.33S
PINEDALE       SUNNY     64  43  45 W16       30.33S
DUBOIS         FAIR      66  36  32 N13G22    30.30F
LANDER         SUNNY     71  46  40 NW3       30.20S
RIVERTON       SUNNY     67  53  61 SE5       30.21S
CASPER         MOSUNNY   72  49  44 NW7       30.16F
DOUGLAS        PTSUNNY   67  52  58 W13       30.13F

$$
WYZ021-027>030-104>119-281800-
SOUTHERN WYOMING

CITY           SKY/WX    TMP DP  RH WIND       PRES   REMARKS
EVANSTON       MOSUNNY   61  48  62 SW8       30.37S
KEMMERER       SUNNY     63  50  63 W8        30.38R
FORT BRIDGER   FAIR      65  50  56 W12       30.38S
ROCK SPRINGS   MOSUNNY   60  49  66 W12       30.33S
DIXON          CLOUDY    56  51  84 CALM      30.35R
RAWLINS        MOSUNNY   63  50  62 W16       30.28S
SARATOGA       CLOUDY    55  52  88 SE7       30.32R
LARAMIE        RAIN      49  47  93 NW8       30.29R FOG
CHEYENNE       CLOUDY    58  46  64 N16       30.19R
TORRINGTON     LGT RAIN  59  57  93 NW13      30.10R
PINE BLUFFS    DRIZZLE   59  55  88 NW14      30.15S

$$



USA.gov is the U.S. government's official web portal to all federal, state and local government web resources and services.